Back to catalog

STARLINK-31884

AliveCommunicationsVLEO
NORAD 59676·PAYLOAD·🇺🇸 United States

Launched May 6, 2024 from Cape Canaveral Space Force Station

Loading…

Next Passes (next 24 hours)

TLE

FreshSource: CelesTrak SupGP

Epoch: Sep 14, 2026, 22:10 UTC

1 59676C 24084Y   26257.92409722  .00060816  00000+0  22027-2 0  2570
2 59676  43.0009  53.0840 0001448 274.4405 115.4024 15.27549642    17

Track STARLINK-31884 in real time with AllMySat

Download on the App Store